Regional Weather Roundup
Issued by NWS Northern Indiana

Home | Current Version | Previous Version | Text Only | Print | Product List | Glossary Off
Versions: 1 2 3 4 5 6 7 8 9 10 11 12 13 14 15 16 17 18 19 20 21 22 23 24 25 26 27 28 29 30 31 32 33 34 35 36 37 38 39 40 41 42 43 44 45 46 47 48 49 50

000
ASUS43 KIWX 271010
RWRIWX

KIWX WEATHER ROUNDUP
NATIONAL WEATHER SERVICE NORTHERN INDIANA
600 AM EDT WED JUL 27 2016

NOTE: "FAIR" INDICATES FEW OR NO CLOUDS BELOW 12,000 FEET WITH NO
SIGNIFICANT WEATHER AND/OR OBSTRUCTIONS TO VISIBILITY.

* THESE STATIONS ARE NOT UNDER NWS QUALITY CONTROL. THEY ALSO MAY NOT
  REPORT WEATHER SUCH AS PRECIPITATION OR FOG.

INZ001>027-271100-
NORTHERN INDIANA

CITY           SKY/WX    TMP DP  RH WIND       PRES   REMARKS
VALPARAISO     CLEAR     67  63  87 CALM      30.03R
MICHIGAN CITY* MOCLDY    63  63 100 CALM      30.03R
LAPORTE*       PTCLDY   N/A N/A N/A CALM      30.03R
KNOX*          PTCLDY    61  61 100 CALM      30.02R
SOUTH BEND     MOCLDY    63  61  93 CALM      30.04R
GOSHEN         PTCLDY    63  60  90 CALM      30.03R FOG
MONTICELLO*    FOG       64  60  87 CALM      30.01R VSB 1/2
LOGANSPORT*    FOG       61  61 100 CALM      30.03R VSB 3/4
ROCHESTER*     CLEAR     64  64 100 CALM      30.03R
WARSAW*        FOG       61  61 100 CALM      30.03R VSB 1
ANGOLA*        MOCLDY    61  52  72 CALM      30.02S
FORT WAYNE     PTCLDY    63  60  90 CALM      30.02R
HUNTINGTON*    CLEAR     64  63  96 CALM      30.02R
PERU/GRISSOM   CLEAR     64  64 100 CALM      30.01R
MARION*        MOCLDY    60  60 100 CALM      30.02R FOG

$$
INZ028>050-271100-
CENTRAL INDIANA

CITY           SKY/WX    TMP DP  RH WIND       PRES   REMARKS
LAFAYETTE      PTCLDY    63  63 100 CALM      30.02R FOG
KOKOMO*        CLEAR     63  57  82 NW3       30.03R
MUNCIE*        CLOUDY    65  63  93 CALM      30.02R FOG
INDIANAPOLIS   MOCLDY    70  66  87 NW3       30.02R

$$
MIZ043>046-050>051-056>058-064>065-071>073-077>080-271100-
SOUTHWEST LOWER MICHIGAN

CITY           SKY/WX    TMP DP  RH WIND       PRES   REMARKS
BATTLE CREEK   CLEAR     63  63 100 CALM      30.04R
BENTON HARBOR  MOCLDY    62  59  90 CALM      30.02R
COLDWATER*     CLEAR     62  62  99 CALM      30.03R
HOLLAND        CLEAR     62  61  96 CALM      30.02R
GRAND RAPIDS   PTCLDY    65  61  87 CALM      30.02R
KALAMAZOO      CLEAR     64  61  90 CALM      30.03R
STURGIS*       CLEAR     62  62 100 CALM      30.02R FOG
THREE RIVERS*  FAIR      64  62  95 CALM      30.03R

$$
OHZ001>008-015>018-024>025-271100-
NORTHWEST OHIO

CITY           SKY/WX    TMP DP  RH WIND       PRES   REMARKS
DEFIANCE       CLEAR     67  63  87 CALM      30.02R
FINDLAY        CLEAR     67  60  78 CALM      30.01R
TOLEDO EXPRESS CLEAR     62  62 100 CALM      30.01S
TOLEDO METCALF PTCLDY    66  61  84 CALM      30.02R
LIMA           CLOUDY    68  62  81 CALM      30.02R

$$
AND FOR LAKE MICHIGAN COASTAL AND OPEN LAKE BUOY OBSERVATIONS

STATION/POSITION TEMP    WIND        PRES    VSBY  WAVE
                 AIR SEA DIR/SP/G                  HT/PER
                 (F)     (DEG/KT/KT) (MB)    (MI)  (FT/S)
CALUMET HARBOR    73     210/  3/  5 1015.2R
MICHIGAN CITY     71     190/  4/  4   N/A
BURNS HARBOR      71     190/  7/  8 1016.3S
SAINT JOSEPH      67     110/  2/  4 1016.6S
SOUTH LAKE BUOY   75 75  220/  6/  8 1015.2R         0
4 MI NW BRIDGMAN  74 78  190/  4/  4 1016.2R         0
MICHIGAN CITY     74 76  210/  4/  4   N/A           0

$$
&&




USA.gov is the U.S. government's official web portal to all federal, state and local government web resources and services.